Kuchera_Ratio
4.5 4.5 5.1 5.4 5.5 4.9 4.7 4.5 4.9 3.9 4.1 4.6 5.3 5.1 5.4 5.6 5.9 6.7 6.5 6.5 6.9 5.5 5.4 5.5 5.5 5.0 4.6 4.2 4.7 4.2 4.0 4.9 4.4 3.7 2.4 2.5 2.2 2.5 1.9 3.6 5.4 8.6 12.4 11.3 9.4 10.0 11.6 9.7 8.8 11.5 10.2 11.9 12.0 8.6 8.7 9.6 11.2 10.4 10.2 10.5 10.7 10.1 6.2
5.1 5.2 5.2 5.3 5.0 4.7 4.5 4.0 3.7 4.7 4.7 5.4 5.7 6.1 5.5 5.7 5.9 6.1 6.0 5.5 6.1 5.4 5.2 5.4 6.6 6.5 5.6 4.2 4.8 4.4 4.9 4.7 5.7 5.1 5.5 5.1 3.4 3.5 3.4 2.1 5.5 6.8 11.1 13.4 11.7 12.8 10.1 10.5 9.4 12.5 8.9 12.0 12.6 12.6 10.5 11.4 11.8 11.5 11.2 11.4 11.7 11.9 11.5
6.0 7.0 6.2 5.0 3.7 3.6 4.2 5.2 5.9 5.3 5.3 5.0 5.4 5.9 5.7 5.6 5.9 6.2 6.4 6.5 6.1 5.8 5.3 6.0 6.4 6.7 6.4 4.9 5.9 5.9 5.7 5.9 6.6 6.0 6.7 6.2 5.7 5.8 4.5 4.0 3.4 6.5 11.5 13.3 13.5 12.0 12.9 12.4 12.2 12.6 12.3 12.1 11.9 10.4 11.2 12.8 12.9 12.1 11.9 11.7 11.9 12.1 12.1
5.4 5.5 6.4 6.2 5.4 5.0 4.5 3.9 4.8 6.2 6.2 5.7 5.4 5.4 5.9 6.2 6.4 6.2 6.3 6.8 6.8 6.2 6.0 6.4 6.7 6.9 6.4 6.3 6.9 7.0 6.9 7.0 7.3 7.4 7.2 7.7 6.6 6.2 6.0 5.3 4.6 4.1 9.5 12.4 13.9 13.4 13.4 12.3 12.7 12.6 11.4 11.6 10.5 12.8 13.1 12.8 12.1 12.1 12.1 12.1 11.9 12.1 12.1
7.9 8.2 8.5 7.7 7.3 7.0 6.2 5.3 4.2 4.2 5.4 6.1 5.7 5.4 5.4 5.9 6.5 6.6 7.0 7.2 7.2 6.4 6.5 6.4 6.9 6.7 6.9 7.4 8.4 8.4 8.6 8.9 9.7 8.9 8.5 9.0 8.5 8.0 6.7 6.6 5.9 6.2 6.8 12.1 13.6 13.4 12.7 12.0 12.6 11.8 11.7 12.0 13.6 13.8 13.7 13.6 13.5 13.2 13.3 12.2 12.1 12.0 11.0
9.2 8.9 8.7 8.2 7.7 6.8 5.9 5.0 4.8 4.7 4.5 4.7 6.1 5.9 5.8 6.0 6.2 6.5 7.0 7.4 7.5 7.2 6.8 7.0 6.9 6.8 7.5 8.2 9.0 9.2 9.5 10.2 11.0 10.2 10.4 10.5 10.0 9.7 9.0 9.2 8.4 7.5 8.3 9.7 12.3 12.9 13.9 13.0 13.6 13.6 13.2 12.6 13.2 14.1 14.6 14.6 14.3 14.3 14.1 13.8 13.8 12.3 11.9
7.5 6.6 7.2 7.5 7.5 6.2 5.3 5.4 5.2 5.4 5.7 6.0 6.2 6.5 6.5 6.4 6.2 6.2 6.9 7.4 7.9 7.7 7.4 7.2 7.2 7.7 8.2 8.7 8.8 9.4 10.1 11.0 11.8 11.4 12.0 11.2 11.5 11.4 11.6 12.1 11.7 10.9 10.5 10.3 12.0 12.6 12.8 13.7 12.9 13.1 14.6 12.9 12.7 13.3 13.9 15.1 15.5 15.6 13.8 13.6 13.6 13.9 12.1
8.4 6.4 6.0 6.9 7.4 5.9 4.8 5.4 5.9 5.9 5.7 6.1 6.5 7.0 7.7 7.1 7.0 7.2 7.0 7.0 7.5 7.7 7.8 7.6 7.6 7.9 8.4 8.7 8.7 9.0 9.5 10.3 12.0 11.5 12.4 11.7 12.1 12.4 12.8 13.0 12.6 12.6 12.4 12.5 12.5 12.8 13.7 13.7 14.1 13.9 13.2 12.7 13.7 15.2 15.6 14.4 14.8 16.2 15.6 14.9 13.7 13.3 13.6
7.4 6.7 7.3 7.9 7.9 8.0 7.3 7.0 6.8 6.1 6.0 6.4 6.2 6.3 7.0 6.9 6.9 7.0 7.5 7.7 7.7 7.6 7.9 8.1 8.0 8.2 8.2 8.0 7.5 7.2 7.7 8.4 9.0 11.9 12.6 12.6 12.6 13.0 13.3 13.4 13.4 13.5 13.2 13.5 13.3 13.3 12.7 14.0 14.6 14.6 14.9 16.0 16.5 16.6 16.3 14.1 13.5 14.8 14.7 14.5 14.4 13.8 11.5
8.2 7.5 8.0 8.2 7.6 7.2 6.6 6.2 5.6 5.2 4.2 4.0 6.0 7.0 6.8 6.7 6.8 7.0 7.7 8.2 8.5 8.4 8.1 8.1 8.1 7.9 7.5 7.5 7.2 7.3 7.4 7.3 7.3 7.9 10.2 12.1 12.7 13.1 13.5 13.8 14.2 14.3 14.0 14.2 14.6 14.4 13.8 15.2 15.7 15.1 15.3 15.9 15.5 14.4 13.8 14.3 14.4 15.8 15.5 15.4 16.0 14.8 14.9
10.5 9.3 9.2 9.1 8.6 8.5 7.4 6.5 6.3 4.6 2.8 2.7 2.9 5.8 7.0 7.3 7.5 7.5 7.5 7.9 8.4 8.9 8.4 8.3 8.3 8.4 8.0 8.0 7.8 8.0 7.4 7.4 7.4 8.0 8.2 8.5 9.5 10.7 12.8 14.0 14.6 14.7 14.3 14.6 14.9 14.3 14.1 14.6 15.3 15.0 14.7 14.8 14.1 14.0 14.2 14.1 14.2 15.3 15.9 16.2 16.8 18.5 16.8
11.5 10.2 9.7 9.0 8.4 8.3 7.7 7.5 5.9 3.2 2.7 2.7 2.7 3.4 6.6 7.7 7.6 7.8 8.4 8.5 8.6 8.2 8.0 8.1 8.7 8.9 9.1 9.5 9.6 9.7 9.4 8.5 8.0 8.1 8.5 8.9 9.7 9.9 9.7 10.2 12.9 14.3 14.8 14.8 15.1 15.2 14.9 14.5 15.3 15.4 15.3 15.3 14.3 14.3 13.8 13.8 14.5 15.8 16.1 16.3 17.1 17.8 17.5
11.2 10.2 9.0 8.9 9.9 9.5 8.2 8.1 5.0 3.3 3.0 3.0 3.2 3.7 5.4 8.7 8.5 8.1 8.1 8.2 8.2 8.2 8.0 8.0 8.8 9.6 9.7 9.9 8.3 9.0 10.5 10.7 10.5 8.8 8.7 9.5 9.8 10.0 9.9 10.2 9.8 10.1 12.9 13.3 14.4 14.9 15.1 14.6 14.6 15.5 15.3 14.4 13.8 12.9 14.9 14.5 16.0 16.0 16.2 16.6 17.4 17.9 17.0
11.3 9.5 8.9 9.0 9.5 9.7 9.9 10.6 6.8 4.1 3.7 3.8 3.7 3.9 4.5 8.4 8.8 8.5 8.1 7.9 7.6 7.4 7.7 8.0 9.0 10.0 10.7 10.9 10.7 10.6 11.7 12.0 12.0 12.1 12.0 12.3 12.5 12.8 12.1 10.6 10.3 10.6 10.9 11.8 13.5 14.1 15.1 14.1 13.5 14.7 14.0 13.4 12.4 13.8 15.3 15.6 16.3 16.4 16.9 17.5 18.1 17.1 17.7
10.9 9.2 9.0 9.9 10.4 11.2 11.2 10.8 4.9 3.8 3.5 3.2 2.9 2.8 3.7 7.6 8.0 8.5 8.5 7.7 7.1 7.1 7.5 7.9 8.4 9.2 10.5 11.5 12.0 11.2 11.7 12.6 12.7 12.8 13.0 13.2 13.5 13.5 13.2 13.0 12.8 12.8 13.0 13.1 13.4 13.4 13.8 13.6 13.3 13.3 13.1 13.2 13.0 14.0 14.6 15.1 16.6 17.0 17.6 18.3 18.8 18.9 18.7
9.5 10.5 11.4 11.9 11.4 11.3 11.5 11.3 4.6 3.6 3.4 3.2 3.1 3.0 6.1 8.2 9.2 9.4 9.0 8.5 8.0 8.0 7.9 7.9 8.4 9.6 10.5 12.0 12.6 10.7 9.3 11.2 12.6 13.2 13.9 14.3 14.1 14.2 13.7 13.5 12.1 10.7 11.0 12.6 13.2 13.4 13.8 14.1 13.4 12.5 14.0 14.2 14.9 15.6 16.1 16.8 17.5 18.0 18.5 19.3 19.9 20.2 19.8
11.0 11.4 12.2 12.1 11.7 11.6 11.7 11.7 8.3 4.4 3.6 3.5 3.0 4.5 7.5 8.1 8.4 9.0 9.9 9.3 8.1 8.4 8.7 9.0 9.4 10.1 11.1 12.3 13.0 11.2 9.0 9.4 11.7 13.8 14.4 14.8 15.0 14.8 14.8 14.6 13.2 10.0 9.2 9.7 10.2 10.5 10.0 9.9 9.6 10.0 10.3 11.4 12.7 14.9 15.8 17.5 18.4 19.0 19.4 20.2 20.9 20.4 19.4
9.9 9.6 11.0 12.1 12.2 12.1 12.0 12.0 9.7 4.7 4.0 3.4 3.3 4.9 7.9 8.5 9.2 9.8 9.7 9.9 10.4 12.2 12.2 10.3 8.6 9.6 12.3 13.0 13.3 10.9 9.0 9.0 12.1 14.2 14.6 15.1 15.6 16.0 16.0 15.5 14.2 13.3 12.3 9.2 9.6 9.9 9.7 9.6 10.3 10.6 10.7 11.4 12.5 13.1 15.1 17.8 18.5 19.1 20.0 21.0 21.1 20.4 19.9
9.9 10.0 11.7 12.4 12.1 8.8 9.5 10.7 8.5 4.9 4.1 4.1 4.0 5.4 7.7 8.2 9.0 9.9 11.0 12.3 13.2 13.5 13.8 12.7 10.2 9.5 12.0 13.1 13.0 10.2 9.0 8.9 12.1 14.3 14.6 15.1 15.7 16.4 16.6 15.9 14.7 14.5 14.7 14.1 14.2 14.1 13.4 13.5 13.0 13.9 14.5 13.6 13.0 13.6 15.3 17.5 18.8 19.2 20.1 21.1 21.1 20.9 21.0
10.2 10.8 10.9 11.3 11.2 10.6 9.4 8.7 7.5 6.7 5.4 5.4 5.5 5.4 7.4 8.2 10.6 12.8 13.6 13.6 14.0 14.7 14.7 14.1 13.3 11.7 11.3 11.9 11.5 10.3 9.1 9.0 10.7 14.0 14.4 14.8 15.9 16.5 17.0 15.3 15.0 14.5 14.6 15.0 15.1 16.5 18.6 18.7 18.8 18.7 18.1 17.6 17.2 17.1 18.3 18.7 19.7 19.9 20.3 20.9 21.3 21.5 21.6
11.1 11.5 11.0 9.9 9.5 9.4 9.3 9.5 10.4 10.8 6.5 6.9 6.3 6.2 7.4 9.5 11.7 12.9 13.7 14.3 14.8 15.1 15.5 15.1 14.4 13.8 12.3 11.7 11.4 10.5 9.3 9.1 10.5 12.3 14.4 14.7 15.6 15.6 15.0 14.2 15.4 14.7 13.8 16.4 18.9 19.1 19.3 19.5 19.6 19.5 19.6 19.9 20.0 19.8 19.7 19.9 20.4 20.6 20.9 21.2 21.3 21.7 21.9
11.0 11.5 12.0 11.7 11.5 12.5 12.8 11.8 10.5 13.8 10.7 9.0 8.3 8.0 7.9 10.5 12.8 12.7 13.8 14.8 15.3 15.5 15.6 15.3 14.7 14.7 12.8 11.9 11.2 10.5 9.6 9.4 10.7 11.9 14.3 14.4 13.0 12.6 12.6 15.0 14.9 15.3 17.7 19.2 19.6 20.0 20.4 20.7 20.7 20.5 20.5 20.5 20.3 20.4 20.4 20.6 20.9 21.0 21.2 21.4 21.3 21.5 22.2
12.2 12.5 12.7 12.5 12.6 12.9 12.9 12.5 13.0 10.7 12.2 10.5 9.7 9.3 9.2 8.9 12.0 11.0 13.4 14.6 15.6 15.6 15.5 15.1 14.9 14.2 12.3 11.8 11.1 10.3 9.9 9.9 10.8 12.4 14.2 12.3 12.1 12.4 13.1 14.6 16.3 18.0 18.6 19.1 19.6 19.7 20.5 20.7 21.0 21.2 21.0 20.9 20.7 20.8 20.9 20.9 21.1 21.2 21.2 21.3 21.3 21.3 21.5
12.6 13.1 13.2 13.2 13.4 13.4 13.4 13.4 13.5 12.6 11.5 11.9 10.7 10.2 9.7 9.1 10.2 10.5 13.8 14.0 14.8 15.0 15.1 15.3 15.2 14.3 12.1 11.4 10.9 10.4 10.0 10.3 11.9 13.7 12.6 12.1 12.3 13.0 14.4 16.6 17.7 18.3 18.9 19.4 19.8 20.2 20.4 20.8 21.0 21.2 21.0 21.0 20.7 20.9 21.1 21.2 21.3 21.3 21.2 21.2 21.1 21.1 21.5
13.3 14.1 14.2 14.0 13.9 13.6 13.1 13.0 13.6 14.1 13.0 11.5 11.4 10.7 10.2 9.2 9.9 10.7 12.4 14.2 14.6 14.6 14.9 14.1 13.3 12.6 11.8 11.4 11.0 10.7 10.0 11.2 12.6 12.4 12.3 12.5 13.0 14.6 16.8 17.6 18.1 18.7 19.1 19.8 20.3 20.5 20.8 21.4 22.0 21.4 21.1 21.1 21.0 21.1 21.3 21.2 21.2 21.2 21.1 21.2 21.3 21.4 21.9
14.5 14.8 14.6 14.1 13.4 13.1 13.2 13.6 14.0 14.2 14.4 13.1 12.4 12.0 10.7 9.0 9.9 11.6 12.3 13.3 14.1 13.6 13.0 12.7 12.7 12.2 12.0 11.9 12.1 12.7 13.8 14.6 14.0 12.7 12.6 13.7 15.5 17.2 17.4 18.0 18.5 19.1 19.5 20.2 20.6 21.1 21.6 22.1 22.2 22.0 21.9 21.9 21.7 21.6 21.5 21.3 21.3 21.3 21.4 21.5 21.4 21.4 22.0
14.9 15.2 14.8 14.5 13.9 13.5 13.4 14.0 14.1 14.5 14.7 14.0 13.4 13.0 11.9 10.9 12.2 12.1 12.8 14.0 13.9 13.5 13.7 13.1 13.1 13.2 12.7 12.8 12.4 13.4 13.7 13.7 13.1 13.8 15.9 17.5 17.4 17.7 17.8 18.1 18.6 19.0 19.6 20.6 20.8 21.8 22.0 22.3 22.5 22.5 22.5 22.5 22.2 22.0 21.9 21.6 21.5 21.4 21.5 21.8 21.9 22.1 22.7
15.0 15.3 15.1 15.0 14.7 14.5 14.1 14.1 14.5 14.7 14.9 14.4 13.6 13.1 12.7 13.2 13.7 14.6 14.9 15.0 14.8 14.5 14.0 13.7 12.7 13.0 14.2 14.4 14.9 15.0 15.8 16.5 17.5 18.2 18.3 18.3 18.6 18.7 18.5 17.6 17.2 18.5 20.3 20.7 21.7 22.1 22.4 22.7 22.9 22.7 22.6 22.6 22.5 22.3 22.1 22.1 22.0 21.9 22.1 22.6 23.1 23.4 23.4
14.7 14.7 14.7 15.1 15.5 15.6 15.7 14.6 14.8 14.6 12.6 13.1 12.2 12.7 13.7 14.3 14.9 15.0 15.2 14.3 13.7 14.4 14.8 15.7 17.1 17.6 17.4 17.5 18.0 18.6 18.7 18.8 19.1 20.0 20.0 20.0 19.8 19.7 19.9 20.8 21.2 21.6 21.9 22.0 22.0 22.3 22.6 22.8 22.9 22.9 22.8 22.6 22.6 22.7 22.5 22.4 22.3 22.5 23.0 23.6 23.6 23.5 23.5
14.2 14.3 14.5 15.4 15.1 14.9 15.6 15.4 14.4 12.0 11.3 11.5 11.0 11.0 12.1 12.8 13.1 13.4 13.8 13.1 13.4 15.2 17.2 17.4 17.9 18.3 18.7 18.7 19.0 19.6 20.4 20.7 20.9 21.1 21.4 21.1 20.1 21.3 21.6 21.8 21.8 21.9 22.1 22.2 22.1 22.1 22.3 22.4 22.5 22.8 22.8 22.6 22.7 23.2 23.3 23.1 23.0 23.2 23.6 23.9 23.8 23.9 23.9
12.0 12.3 12.4 13.7 15.3 14.5 12.8 12.4 12.1 12.1 11.5 11.4 10.7 10.9 11.7 12.2 12.4 12.3 12.6 13.2 15.3 16.6 17.5 18.2 18.9 19.2 19.3 19.6 19.8 20.5 20.7 21.0 21.3 21.7 22.0 22.6 22.5 21.9 22.0 22.1 22.2 22.2 22.3 22.4 22.4 22.2 22.2 22.2 22.2 22.5 22.8 22.7 22.8 23.4 23.8 23.9 24.1 24.1 24.1 24.1 24.0 24.1 24.2
12.0 11.7 11.1 11.7 12.6 13.6 14.0 12.7 12.4 12.2 12.0 11.2 10.4 10.9 11.4 11.7 11.7 12.1 12.5 13.0 13.9 17.3 18.2 18.3 18.9 19.4 19.9 20.1 20.7 21.1 21.1 21.1 21.6 22.1 22.5 22.7 23.2 23.5 23.0 22.3 22.3 22.5 22.3 22.2 22.4 22.5 22.4 22.3 22.0 22.2 22.6 22.6 22.9 23.7 24.0 24.2 24.2 24.2 24.1 24.1 24.1 24.2 24.3
12.1 11.3 10.0 9.9 10.2 10.2 12.0 12.6 12.6 12.4 11.7 10.9 10.2 10.6 11.0 11.0 11.2 12.1 12.4 13.4 16.5 18.2 18.7 18.7 18.9 19.7 20.0 20.2 21.1 21.1 21.1 21.5 21.7 22.2 22.5 22.5 23.1 23.5 23.3 22.8 22.7 22.6 22.3 22.2 22.2 22.1 22.2 22.3 22.0 22.0 22.6 23.1 23.5 24.0 24.2 24.1 24.0 24.0 24.0 24.1 24.3 24.5 24.7
12.6 12.1 11.2 10.4 10.1 10.2 11.0 11.4 12.1 12.0 11.2 10.3 9.9 10.2 10.3 11.4 12.7 12.2 12.8 14.8 17.6 17.9 18.7 18.7 19.3 19.6 19.8 20.0 20.4 20.8 21.3 21.9 22.1 22.3 22.7 23.1 23.2 23.4 23.3 23.3 23.4 23.1 22.6 22.3 22.2 22.0 22.1 22.2 22.2 22.2 22.7 23.4 24.0 24.1 24.0 23.9 23.9 24.0 24.2 24.5 24.8 25.0 25.2
15.9 13.6 12.1 12.2 12.1 10.5 10.4 11.2 11.4 11.2 10.8 9.7 9.8 10.0 10.2 11.5 14.3 16.0 16.6 16.8 17.4 17.5 18.1 18.9 19.4 19.8 19.9 20.0 20.5 20.9 21.2 21.7 22.0 22.1 22.7 22.8 23.1 23.5 23.6 23.5 23.4 23.4 22.6 22.3 22.3 22.2 22.3 22.5 22.6 22.6 22.6 22.8 23.5 23.8 23.8 23.8 24.1 24.4 24.7 25.0 25.2 25.4 25.5
16.1 15.1 13.6 12.1 12.1 10.3 10.3 10.4 10.7 10.7 10.2 9.5 9.6 10.3 11.9 15.6 16.9 17.3 17.6 17.8 17.8 18.1 18.5 18.6 18.8 19.1 19.6 19.8 20.5 20.7 21.1 21.3 21.7 22.1 22.5 22.2 22.4 23.1 23.5 23.4 23.3 23.1 22.7 22.5 22.4 22.4 22.5 22.6 22.7 22.7 22.6 22.7 23.3 23.8 24.0 24.3 24.7 25.0 25.2 25.4 25.6 25.8 25.9